This demonstration page uses our WeatherBlox Daily Observations layout. Learn more.

Left ArrowRight Arrow

30.21309, -93.2044

Hourly Observations for January 20, 2022

Temp ( °F °C ) Dew Point ( °F °C ) Humidity (%) Winds ( mph kmh ) Pressure ( in mb ) Visibility ( mi km ) Precip ( " mm )
12:10 am 00:10 Cloudy 62 16.7 59 15.1 90 90 NNE 9 15 29.98 1015 7 11 0.04 1.02
12:35 am 00:35 Cloudy with Strong Thunderstorms 62 16.8 60 15.6 93 93 N 10 17 29.99 1016 3 5 0.26 6.60
12:55 am 00:55 Cloudy with Strong Thunderstorms 62 16.6 60 15.6 94 94 NW 7 11 30.00 1016 3 4 0.95 24.13
1:15 am 01:15 Cloudy with Thunderstorms 62 16.7 60 15.7 94 94 Calm 30.00 1016 5 8 0.05 1.27
1:35 am 01:35 Cloudy with Rain 62 16.7 60 15.7 94 94 Calm 30.01 1016 3 4 0.10 2.54
1:55 am 01:55 Cloudy with Rain 62 16.8 61 15.9 94 94 NW 3 6 30.01 1016 5 8 0.19 4.83
2:15 am 02:15 Cloudy with Light Rain 62 16.7 60 15.8 94 94 NNW 8 13 30.02 1017 5 8 0.06 1.52
2:35 am 02:35 Cloudy with Light Rain 62 16.6 60 15.5 93 93 NNW 9 15 30.02 1017 7 11 0.09 2.29
2:55 am 02:55 Cloudy with Light Rain 62 16.6 60 15.3 92 92 N 10 17 30.03 1017 10 16 0.11 2.79
3:15 am 03:15 Cloudy with Light Rain 61 16.3 59 14.8 91 91 N 13 20 30.04 1017 10 16 0.02 0.51
3:35 am 03:35 Cloudy with Light Rain 61 16 58 14.6 91 91 N 10 17 30.04 1017 10 16 0.02 0.51
3:55 am 03:55 Cloudy with Light Rain 61 15.9 58 14.6 92 92 N 9 15 30.05 1018 10 16 0.04 1.02
4:15 am 04:15 Cloudy with Light Rain 59 15 56 13.6 91 91 NNW 9 15 30.05 1018 10 16 0.00 0.00
4:35 am 04:35 Cloudy with Mist and Fog 57 13.8 55 12.6 93 93 N 16 26 30.06 1018 7 11 0.00 0.00
4:55 am 04:55 Cloudy with Light Rain 53 11.8 51 10.6 92 92 N 15 24 30.07 1018 3 4 0.01 0.25
5:15 am 05:15 Cloudy with Light Rain 51 10.5 49 9.4 93 93 N 16 26 30.09 1019 3 5 0.00 0.00
5:35 am 05:35 Cloudy 49 9.3 46 8 92 92 NNE 20 31 30.10 1019 7 11 0.00 0.00
6:00 am 06:00 Cloudy 46 8 45 7 93 93 NNE 20 31 30.11 1020 10 16 0.00 0.00
6:45 am 06:45 Cloudy with Mist and Fog 45 7 43 6 93 93 NNE 20 31 30.15 1021 6 10 0.00 0.00
7:47 am 07:47 Cloudy with Light Rain 158 70 39 4 2 2 N 17 28 30.20 1023 4 6 0.00 0.00
8:45 am 08:45 Cloudy with Light Rain 41 5 37 3 87 87 N 17 28 30.24 1024 4 6 0.00 0.00
9:51 am 09:51 Cloudy with Mist and Fog 39 4 37 3 93 93 N 16 26 30.27 1025 5 8 0.00 0.00
10:45 am 10:45 Cloudy with Mist and Fog 39 4 37 3 93 93 N 16 26 30.30 1026 5 8 0.00 0.00
11:50 am 11:50 Cloudy 39 4 34 1 81 81 N 17 28 30.29 1026 7 11 0.00 0.00
12:52 pm 12:52 Cloudy 39 4 34 1 81 81 NNE 17 28 30.27 1025 7 11 0.00 0.00
1:53 pm 13:53 Cloudy 39 4 32 0 75 75 N 17 28 30.25 1024 10 16 0.00 0.00
2:46 pm 14:46 Cloudy 41 5 32 0 70 70 NNE 17 28 30.25 1024 10 16 0.00 0.00
3:50 pm 15:50 Cloudy 41 5 30 -1 66 66 NNE 17 28 30.24 1024 10 16 0.00 0.00
4:45 pm 16:45 Cloudy 39 4 30 -1 70 70 NNE 17 28 30.25 1024 10 16 0.00 0.00
5:55 pm 17:55 Cloudy 41 5 30 -1 66 66 N 12 19 30.28 1025 10 16 0.00 0.00
6:50 pm 18:50 Cloudy 41 5 28 -2 61 61 N 17 28 30.29 1026 10 16 0.00 0.00
7:50 pm 19:50 Partly Cloudy 39 4 25 -4 56 56 NNE 17 28 30.31 1026 10 16 0.00 0.00
8:55 pm 20:55 Partly Cloudy 39 4 21 -6 48 48 NNE 17 28 30.31 1026 10 16 0.00 0.00
9:45 pm 21:45 Partly Cloudy 39 4 21 -6 48 48 NNE 17 28 30.32 1027 10 16 0.00 0.00
10:15 pm 22:15 Cloudy 39 3.7 20 -6.8 47 47 NNE 15 24 30.33 1027 10 16 0.00 0.00
10:35 pm 22:35 Cloudy 38 3.5 18 -7.7 44 44 NNE 16 26 30.33 1027 10 16 0.00 0.00
10:55 pm 22:55 Cloudy 38 3.4 17 -8.2 43 43 NNE 18 30 30.34 1027 10 16 0.00 0.00
11:15 pm 23:15 Cloudy 38 3.2 20 -6.6 49 49 N 10 17 30.34 1027 10 16 0.00 0.00
11:35 pm 23:35 Cloudy 37 3 19 -7.5 46 46 NNE 13 20 30.34 1027 10 16 0.00 0.00
11:55 pm 23:55 Cloudy 37 2.8 20 -6.7 50 50 N 12 19 30.33 1027 10 16 0.00 0.00

Powered by AerisWeather